Time,TemperatureF,DewpointF,PressureIn,WindDirection,WindDirectionDegrees,WindSpeedMPH,WindSpeedGustMPH,Humidity,HourlyPrecipIn,Conditions,Clouds,dailyrainin,SoftwareType,DateUTC
2013-08-26 00:00:00,79.1,70.1,30.04,South,189,0.0,2.0,74,0.00,,,0.00,Wunderground v.1.15,2013-08-26 05:00:00,
2013-08-26 00:05:00,79.1,70.1,30.04,SSW,209,0.0,2.0,74,0.00,,,0.00,Wunderground v.1.15,2013-08-26 05:05:00,
2013-08-26 00:10:00,78.9,69.9,30.04,SSW,211,0.0,0.0,74,0.00,,,0.00,Wunderground v.1.15,2013-08-26 05:10:00,
2013-08-26 00:15:00,78.7,69.7,30.04,SSW,196,1.0,1.0,74,0.00,,,0.00,Wunderground v.1.15,2013-08-26 05:15:00,
2013-08-26 00:24:00,78.2,69.6,30.04,SSW,196,0.0,2.0,75,0.00,,,0.00,Wunderground v.1.15,2013-08-26 05:24:00,
2013-08-26 00:29:00,78.1,69.9,30.04,South,190,0.0,0.0,76,0.00,,,0.00,Wunderground v.1.15,2013-08-26 05:29:00,
2013-08-26 00:39:00,77.7,69.5,30.04,SSW,203,0.0,0.0,76,0.00,,,0.00,Wunderground v.1.15,2013-08-26 05:39:00,
2013-08-26 00:45:00,77.6,69.8,30.04,SSW,195,0.0,0.0,77,0.00,,,0.00,Wunderground v.1.15,2013-08-26 05:45:00,
2013-08-26 00:50:00,77.5,69.7,30.04,SSW,207,0.0,0.0,77,0.00,,,0.00,Wunderground v.1.15,2013-08-26 05:50:00,
2013-08-26 00:55:00,77.4,69.6,30.04,South,182,0.0,0.0,77,0.00,,,0.00,Wunderground v.1.15,2013-08-26 05:55:00,
2013-08-26 01:05:00,77.3,69.5,30.04,WSW,242,1.0,1.0,77,0.00,,,0.00,Wunderground v.1.15,2013-08-26 06:05:00,
2013-08-26 01:10:00,77.2,69.8,30.04,SSW,206,0.0,0.0,78,0.00,,,0.00,Wunderground v.1.15,2013-08-26 06:10:00,
2013-08-26 01:15:00,77.1,69.7,30.04,SSW,202,0.0,0.0,78,0.00,,,0.00,Wunderground v.1.15,2013-08-26 06:15:00,
2013-08-26 01:20:00,77.0,69.6,30.04,SSW,196,0.0,0.0,78,0.00,,,0.00,Wunderground v.1.15,2013-08-26 06:20:00,
2013-08-26 01:25:00,76.8,69.4,30.04,South,191,0.0,0.0,78,0.00,,,0.00,Wunderground v.1.15,2013-08-26 06:25:00,
2013-08-26 01:30:00,76.7,69.3,30.03,SW,221,0.0,0.0,78,0.00,,,0.00,Wunderground v.1.15,2013-08-26 06:30:00,
2013-08-26 01:35:00,76.5,69.5,30.04,SSW,199,0.0,0.0,79,0.00,,,0.00,Wunderground v.1.15,2013-08-26 06:35:00,
2013-08-26 01:44:00,76.3,69.3,30.03,SW,219,0.0,4.0,79,0.00,,,0.00,Wunderground v.1.15,2013-08-26 06:44:00,
2013-08-26 01:54:00,76.1,69.1,30.03,SSW,196,0.0,0.0,79,0.00,,,0.00,Wunderground v.1.15,2013-08-26 06:54:00,
2013-08-26 02:00:00,76.1,69.1,30.03,SSW,210,0.0,0.0,79,0.00,,,0.00,Wunderground v.1.15,2013-08-26 07:00:00,
2013-08-26 02:05:00,76.0,69.0,30.03,SSW,203,0.0,0.0,79,0.00,,,0.00,Wunderground v.1.15,2013-08-26 07:05:00,
2013-08-26 02:10:00,75.9,69.3,30.03,SSW,192,0.0,0.0,80,0.00,,,0.00,Wunderground v.1.15,2013-08-26 07:10:00,
2013-08-26 02:15:00,75.8,69.2,30.03,SSW,206,0.0,0.0,80,0.00,,,0.00,Wunderground v.1.15,2013-08-26 07:15:00,
2013-08-26 02:20:00,75.7,69.1,30.03,South,186,0.0,0.0,80,0.00,,,0.00,Wunderground v.1.15,2013-08-26 07:20:00,
2013-08-26 02:25:00,75.6,69.0,30.03,SSW,211,0.0,0.0,80,0.00,,,0.00,Wunderground v.1.15,2013-08-26 07:25:00,
2013-08-26 02:30:00,75.4,68.8,30.03,SSW,211,0.0,0.0,80,0.00,,,0.00,Wunderground v.1.15,2013-08-26 07:30:00,
2013-08-26 02:35:00,75.2,69.0,30.03,SSW,210,0.0,0.0,81,0.00,,,0.00,Wunderground v.1.15,2013-08-26 07:35:00,
2013-08-26 02:40:00,75.1,68.9,30.03,South,173,0.0,0.0,81,0.00,,,0.00,Wunderground v.1.15,2013-08-26 07:40:00,
2013-08-26 02:49:00,74.8,68.9,30.03,SSW,200,0.0,0.0,82,0.00,,,0.00,Wunderground v.1.15,2013-08-26 07:49:00,
2013-08-26 02:55:00,74.7,68.8,30.03,SSW,198,0.0,0.0,82,0.00,,,0.00,Wunderground v.1.15,2013-08-26 07:55:00,
2013-08-26 03:05:00,74.6,68.7,30.03,South,188,1.0,1.0,82,0.00,,,0.00,Wunderground v.1.15,2013-08-26 08:05:00,
2013-08-26 03:10:00,74.6,68.7,30.03,SSW,209,0.0,0.0,82,0.00,,,0.00,Wunderground v.1.15,2013-08-26 08:10:00,
2013-08-26 03:15:00,74.5,68.6,30.03,SSW,205,0.0,0.0,82,0.00,,,0.00,Wunderground v.1.15,2013-08-26 08:15:00,
2013-08-26 03:20:00,74.5,68.6,30.03,SSW,205,0.0,0.0,82,0.00,,,0.00,Wunderground v.1.15,2013-08-26 08:20:00,
2013-08-26 03:25:00,74.5,68.6,30.03,SSW,205,0.0,0.0,82,0.00,,,0.00,Wunderground v.1.15,2013-08-26 08:25:00,
2013-08-26 03:30:00,74.4,68.5,30.03,South,178,0.0,0.0,82,0.00,,,0.00,Wunderground v.1.15,2013-08-26 08:30:00,
2013-08-26 03:40:00,74.3,68.8,30.03,SW,215,0.0,0.0,83,0.00,,,0.00,Wunderground v.1.15,2013-08-26 08:40:00,
2013-08-26 03:49:00,74.2,68.7,30.03,South,184,0.0,0.0,83,0.00,,,0.00,Wunderground v.1.15,2013-08-26 08:49:00,
2013-08-26 03:55:00,74.2,68.7,30.03,SSW,194,0.0,0.0,83,0.00,,,0.00,Wunderground v.1.15,2013-08-26 08:55:00,
2013-08-26 04:00:00,74.1,68.6,30.03,SSW,200,0.0,0.0,83,0.00,,,0.00,Wunderground v.1.15,2013-08-26 09:00:00,
2013-08-26 04:05:00,74.1,68.6,30.03,SSW,206,0.0,0.0,83,0.00,,,0.00,Wunderground v.1.15,2013-08-26 09:05:00,
2013-08-26 04:15:00,73.9,68.8,30.03,South,189,0.0,0.0,84,0.00,,,0.00,Wunderground v.1.15,2013-08-26 09:15:00,
2013-08-26 04:20:00,73.8,68.7,30.03,SSW,196,0.0,0.0,84,0.00,,,0.00,Wunderground v.1.15,2013-08-26 09:20:00,
2013-08-26 04:25:00,73.7,68.9,30.03,SSW,200,0.0,0.0,85,0.00,,,0.00,Wunderground v.1.15,2013-08-26 09:25:00,
2013-08-26 04:30:00,73.6,68.8,30.03,SSW,197,0.0,0.0,85,0.00,,,0.00,Wunderground v.1.15,2013-08-26 09:30:00,
2013-08-26 04:39:00,73.3,68.5,30.03,SSW,209,0.0,0.0,85,0.00,,,0.00,Wunderground v.1.15,2013-08-26 09:39:00,
2013-08-26 04:45:00,73.2,68.8,30.02,South,189,0.0,0.0,86,0.00,,,0.00,Wunderground v.1.15,2013-08-26 09:45:00,
2013-08-26 04:50:00,73.1,68.7,30.03,SSE,164,0.0,0.0,86,0.00,,,0.00,Wunderground v.1.15,2013-08-26 09:50:00,
2013-08-26 04:55:00,73.0,68.9,30.03,SSW,198,0.0,0.0,87,0.00,,,0.00,Wunderground v.1.15,2013-08-26 09:55:00,
2013-08-26 05:04:00,72.7,68.6,30.02,SSW,209,0.0,0.0,87,0.00,,,0.00,Wunderground v.1.15,2013-08-26 10:04:00,
2013-08-26 05:10:00,72.6,68.5,30.03,SSW,202,0.0,0.0,87,0.00,,,0.00,Wunderground v.1.15,2013-08-26 10:10:00,
2013-08-26 05:15:00,72.5,68.7,30.03,SSW,199,0.0,0.0,88,0.00,,,0.00,Wunderground v.1.15,2013-08-26 10:15:00,
2013-08-26 05:20:00,72.3,68.5,30.02,South,186,0.0,0.0,88,0.00,,,0.00,Wunderground v.1.15,2013-08-26 10:20:00,
2013-08-26 05:30:00,72.3,68.5,30.03,SSE,159,0.0,0.0,88,0.00,,,0.00,Wunderground v.1.15,2013-08-26 10:30:00,
2013-08-26 05:35:00,72.2,68.8,30.03,SSW,200,0.0,0.0,89,0.00,,,0.00,Wunderground v.1.15,2013-08-26 10:35:00,
2013-08-26 05:40:00,72.1,68.7,30.03,SSW,193,0.0,0.0,89,0.00,,,0.00,Wunderground v.1.15,2013-08-26 10:40:00,
2013-08-26 05:45:00,72.1,68.7,30.03,SSE,162,0.0,0.0,89,0.00,,,0.00,Wunderground v.1.15,2013-08-26 10:45:00,
2013-08-26 05:50:00,72.0,68.6,30.03,South,188,0.0,0.0,89,0.00,,,0.00,Wunderground v.1.15,2013-08-26 10:50:00,
2013-08-26 05:59:00,71.9,68.5,30.04,SSW,209,0.0,0.0,89,0.00,,,0.00,Wunderground v.1.15,2013-08-26 10:59:00,
2013-08-26 06:04:00,71.8,68.4,30.04,SSW,209,0.0,0.0,89,0.00,,,0.00,Wunderground v.1.15,2013-08-26 11:04:00,
2013-08-26 06:10:00,71.8,68.4,30.03,SSW,209,0.0,0.0,89,0.00,,,0.00,Wunderground v.1.15,2013-08-26 11:10:00,
2013-08-26 06:15:00,71.7,68.6,30.04,SSW,209,0.0,0.0,90,0.00,,,0.00,Wunderground v.1.15,2013-08-26 11:15:00,
2013-08-26 06:20:00,71.6,68.5,30.04,SSW,194,0.0,0.0,90,0.00,,,0.00,Wunderground v.1.15,2013-08-26 11:20:00,
2013-08-26 06:25:00,71.6,68.5,30.04,SW,216,0.0,0.0,90,0.00,,,0.00,Wunderground v.1.15,2013-08-26 11:25:00,
2013-08-26 06:30:00,71.6,68.5,30.04,SW,218,0.0,0.0,90,0.00,,,0.00,Wunderground v.1.15,2013-08-26 11:30:00,
2013-08-26 06:35:00,71.6,68.5,30.04,South,186,0.0,0.0,90,0.00,,,0.00,Wunderground v.1.15,2013-08-26 11:35:00,
2013-08-26 06:40:00,71.6,68.5,30.04,SSW,201,0.0,0.0,90,0.00,,,0.00,Wunderground v.1.15,2013-08-26 11:40:00,
2013-08-26 06:45:00,71.6,68.5,30.04,SSW,198,0.0,0.0,90,0.00,,,0.00,Wunderground v.1.15,2013-08-26 11:45:00,
2013-08-26 06:54:00,71.8,68.7,30.04,South,172,0.0,0.0,90,0.00,,,0.00,Wunderground v.1.15,2013-08-26 11:54:00,
2013-08-26 06:59:00,71.9,68.8,30.04,SSW,202,0.0,0.0,90,0.00,,,0.00,Wunderground v.1.15,2013-08-26 11:59:00,
2013-08-26 07:04:00,72.1,69.0,30.05,SSW,193,0.0,0.0,90,0.00,,,0.00,Wunderground v.1.15,2013-08-26 12:04:00,
2013-08-26 07:10:00,72.1,69.0,30.05,SSW,209,0.0,0.0,90,0.00,,,0.00,Wunderground v.1.15,2013-08-26 12:10:00,
2013-08-26 07:15:00,72.2,68.8,30.04,SSW,192,0.0,0.0,89,0.00,,,0.00,Wunderground v.1.15,2013-08-26 12:15:00,
2013-08-26 07:20:00,72.2,68.8,30.05,SSW,192,0.0,0.0,89,0.00,,,0.00,Wunderground v.1.15,2013-08-26 12:20:00,
2013-08-26 07:25:00,72.3,68.9,30.05,South,191,0.0,0.0,89,0.00,,,0.00,Wunderground v.1.15,2013-08-26 12:25:00,
2013-08-26 07:30:00,72.5,69.1,30.05,SSW,200,0.0,0.0,89,0.00,,,0.00,Wunderground v.1.15,2013-08-26 12:30:00,
2013-08-26 07:35:00,72.7,69.3,30.05,SSW,200,0.0,0.0,89,0.00,,,0.00,Wunderground v.1.15,2013-08-26 12:35:00,
2013-08-26 07:44:00,73.1,69.3,30.05,SSW,211,0.0,0.0,88,0.00,,,0.00,Wunderground v.1.15,2013-08-26 12:44:00,
2013-08-26 07:49:00,73.4,69.6,30.05,SW,218,1.0,1.0,88,0.00,,,0.00,Wunderground v.1.15,2013-08-26 12:49:00,
2013-08-26 07:54:00,73.6,69.8,30.05,SSW,197,1.0,1.0,88,0.00,,,0.00,Wunderground v.1.15,2013-08-26 12:54:00,
2013-08-26 07:59:00,73.9,69.8,30.05,SSW,198,0.0,0.0,87,0.00,,,0.00,Wunderground v.1.15,2013-08-26 12:59:00,
2013-08-26 08:05:00,74.1,70.0,30.05,South,181,0.0,0.0,87,0.00,,,0.00,Wunderground v.1.15,2013-08-26 13:05:00,
2013-08-26 08:10:00,74.4,70.3,30.05,SW,225,0.0,0.0,87,0.00,,,0.00,Wunderground v.1.15,2013-08-26 13:10:00,
2013-08-26 08:15:00,74.7,70.2,30.05,SW,220,0.0,5.0,86,0.00,,,0.00,Wunderground v.1.15,2013-08-26 13:15:00,
2013-08-26 08:20:00,75.1,70.6,30.05,SSW,196,1.0,1.0,86,0.00,,,0.00,Wunderground v.1.15,2013-08-26 13:20:00,
2013-08-26 08:25:00,75.5,70.7,30.05,South,190,1.0,1.0,85,0.00,,,0.00,Wunderground v.1.15,2013-08-26 13:25:00,
2013-08-26 08:30:00,75.9,71.1,30.05,SSW,208,0.0,0.0,85,0.00,,,0.00,Wunderground v.1.15,2013-08-26 13:30:00,
2013-08-26 08:35:00,76.5,70.9,30.05,SSW,205,1.0,4.0,83,0.00,,,0.00,Wunderground v.1.15,2013-08-26 13:35:00,
2013-08-26 08:44:00,77.6,71.7,30.04,SSW,198,0.0,1.0,82,0.00,,,0.00,Wunderground v.1.15,2013-08-26 13:44:00,
2013-08-26 08:49:00,78.2,71.5,30.04,SSW,202,0.0,0.0,80,0.00,,,0.00,Wunderground v.1.15,2013-08-26 13:49:00,
2013-08-26 08:54:00,78.5,71.8,30.04,West,261,1.0,1.0,80,0.00,,,0.00,Wunderground v.1.15,2013-08-26 13:54:00,
2013-08-26 09:04:00,78.8,71.4,30.04,SSW,200,2.0,7.0,78,0.00,,,0.00,Wunderground v.1.15,2013-08-26 14:04:00,
2013-08-26 09:10:00,79.2,71.7,30.04,SSW,205,3.0,3.0,78,0.00,,,0.00,Wunderground v.1.15,2013-08-26 14:10:00,
2013-08-26 09:15:00,79.5,71.7,30.04,SSW,199,3.0,5.0,77,0.00,,,0.00,Wunderground v.1.15,2013-08-26 14:15:00,
2013-08-26 09:20:00,79.7,71.8,30.04,SSW,205,4.0,5.0,77,0.00,,,0.00,Wunderground v.1.15,2013-08-26 14:20:00,
2013-08-26 09:25:00,80.1,72.2,30.03,SW,225,4.0,5.0,77,0.00,,,0.00,Wunderground v.1.15,2013-08-26 14:25:00,
2013-08-26 09:30:00,80.7,72.4,30.04,SW,214,4.0,4.0,76,0.00,,,0.00,Wunderground v.1.15,2013-08-26 14:30:00,
2013-08-26 09:35:00,80.9,72.6,30.04,SW,229,3.0,4.0,76,0.00,,,0.00,Wunderground v.1.15,2013-08-26 14:35:00,
2013-08-26 09:44:00,80.9,72.2,30.04,SSW,200,3.0,8.0,75,0.00,,,0.00,Wunderground v.1.15,2013-08-26 14:44:00,
2013-08-26 09:49:00,81.3,72.6,30.04,South,183,2.0,2.0,75,0.00,,,0.00,Wunderground v.1.15,2013-08-26 14:49:00,
2013-08-26 09:54:00,81.8,72.3,30.03,SSW,202,1.0,2.0,73,0.00,,,0.00,Wunderground v.1.15,2013-08-26 14:54:00,
2013-08-26 09:59:00,82.0,72.5,30.04,SSW,206,2.0,2.0,73,0.00,,,0.00,Wunderground v.1.15,2013-08-26 14:59:00,
2013-08-26 10:05:00,82.2,72.7,30.04,West,265,2.0,2.0,73,0.00,,,0.00,Wunderground v.1.15,2013-08-26 15:05:00,
2013-08-26 10:14:00,82.8,72.8,30.03,SW,214,2.0,5.0,72,0.00,,,0.00,Wunderground v.1.15,2013-08-26 15:14:00,
2013-08-26 10:20:00,83.1,73.1,30.03,SSW,213,3.0,3.0,72,0.00,,,0.00,Wunderground v.1.15,2013-08-26 15:20:00,
2013-08-26 10:25:00,83.4,73.0,30.03,SW,217,3.0,3.0,71,0.00,,,0.00,Wunderground v.1.15,2013-08-26 15:25:00,
2013-08-26 10:30:00,83.6,73.2,30.03,SW,215,2.0,2.0,71,0.00,,,0.00,Wunderground v.1.15,2013-08-26 15:30:00,
2013-08-26 10:35:00,84.2,73.3,30.03,SW,219,1.0,3.0,70,0.00,,,0.00,Wunderground v.1.15,2013-08-26 15:35:00,
2013-08-26 10:40:00,84.5,73.2,30.03,South,169,1.0,1.0,69,0.00,,,0.00,Wunderground v.1.15,2013-08-26 15:40:00,
2013-08-26 10:45:00,84.8,73.5,30.03,West,277,1.0,1.0,69,0.00,,,0.00,Wunderground v.1.15,2013-08-26 15:45:00,
2013-08-26 10:50:00,84.9,73.6,30.03,SSW,198,1.0,1.0,69,0.00,,,0.00,Wunderground v.1.15,2013-08-26 15:50:00,
2013-08-26 10:55:00,85.2,73.4,30.03,SSE,157,2.0,2.0,68,0.00,,,0.00,Wunderground v.1.15,2013-08-26 15:55:00,
2013-08-26 11:04:00,85.9,74.1,30.03,South,186,2.0,2.0,68,0.00,,,0.00,Wunderground v.1.15,2013-08-26 16:04:00,
2013-08-26 11:09:00,86.2,73.5,30.03,SE,142,2.0,2.0,66,0.00,,,0.00,Wunderground v.1.15,2013-08-26 16:09:00,
2013-08-26 11:15:00,86.4,74.1,30.02,SSW,200,2.0,6.0,67,0.00,,,0.00,Wunderground v.1.15,2013-08-26 16:15:00,
2013-08-26 11:20:00,86.5,73.3,30.02,SSW,203,2.0,2.0,65,0.00,,,0.00,Wunderground v.1.15,2013-08-26 16:20:00,
2013-08-26 11:25:00,86.5,73.8,30.02,SSW,210,1.0,2.0,66,0.00,,,0.00,Wunderground v.1.15,2013-08-26 16:25:00,
2013-08-26 11:30:00,86.7,73.5,30.02,South,186,2.0,2.0,65,0.00,,,0.00,Wunderground v.1.15,2013-08-26 16:30:00,
2013-08-26 11:35:00,86.8,73.6,30.02,South,184,2.0,2.0,65,0.00,,,0.00,Wunderground v.1.15,2013-08-26 16:35:00,
2013-08-26 11:40:00,87.0,74.3,30.02,SW,234,2.0,2.0,66,0.00,,,0.00,Wunderground v.1.15,2013-08-26 16:40:00,
2013-08-26 11:45:00,87.5,73.8,30.02,WSW,246,2.0,2.0,64,0.00,,,0.00,Wunderground v.1.15,2013-08-26 16:45:00,
2013-08-26 11:54:00,87.3,73.6,30.02,WSW,246,3.0,6.0,64,0.00,,,0.00,Wunderground v.1.15,2013-08-26 16:54:00,
2013-08-26 12:00:00,87.9,73.7,30.01,South,178,3.0,9.0,63,0.00,,,0.00,Wunderground v.1.15,2013-08-26 17:00:00,
2013-08-26 12:05:00,87.7,74.0,30.01,SSW,192,3.0,9.0,64,0.00,,,0.00,Wunderground v.1.15,2013-08-26 17:05:00,
2013-08-26 12:10:00,88.4,73.7,30.01,SSW,199,3.0,6.0,62,0.00,,,0.00,Wunderground v.1.15,2013-08-26 17:10:00,
2013-08-26 12:15:00,88.4,73.7,30.01,SW,217,3.0,6.0,62,0.00,,,0.00,Wunderground v.1.15,2013-08-26 17:15:00,
2013-08-26 12:24:00,88.3,73.6,30.01,SW,221,4.0,4.0,62,0.00,,,0.00,Wunderground v.1.15,2013-08-26 17:24:00,
2013-08-26 12:30:00,88.5,73.8,30.01,SSW,195,3.0,3.0,62,0.00,,,0.00,Wunderground v.1.15,2013-08-26 17:30:00,
2013-08-26 12:34:00,88.8,73.6,30.01,West,261,2.0,3.0,61,0.00,,,0.00,Wunderground v.1.15,2013-08-26 17:34:00,
2013-08-26 12:40:00,88.6,73.9,30.01,South,190,3.0,3.0,62,0.00,,,0.00,Wunderground v.1.15,2013-08-26 17:40:00,
2013-08-26 12:45:00,88.9,74.2,30.00,SSW,199,3.0,3.0,62,0.00,,,0.00,Wunderground v.1.15,2013-08-26 17:45:00,
2013-08-26 12:50:00,89.1,73.9,30.00,SSW,199,3.0,7.0,61,0.00,,,0.00,Wunderground v.1.15,2013-08-26 17:50:00,
2013-08-26 12:55:00,89.2,74.0,30.00,SW,217,3.0,7.0,61,0.00,,,0.00,Wunderground v.1.15,2013-08-26 17:55:00,
2013-08-26 13:00:00,89.6,73.9,30.00,WSW,250,3.0,3.0,60,0.00,,,0.00,Wunderground v.1.15,2013-08-26 18:00:00,
2013-08-26 13:09:00,90.9,74.6,29.99,South,188,1.0,1.0,59,0.00,,,0.00,Wunderground v.1.15,2013-08-26 18:09:00,
2013-08-26 13:14:00,90.5,74.2,29.99,SSW,211,2.0,2.0,59,0.00,,,0.00,Wunderground v.1.15,2013-08-26 18:14:00,
2013-08-26 13:20:00,90.1,73.8,29.99,WSW,250,3.0,3.0,59,0.00,,,0.00,Wunderground v.1.15,2013-08-26 18:20:00,
2013-08-26 13:25:00,90.1,73.8,29.99,SW,216,3.0,3.0,59,0.00,,,0.00,Wunderground v.1.15,2013-08-26 18:25:00,
2013-08-26 13:30:00,90.7,73.9,29.99,SW,226,2.0,5.0,58,0.00,,,0.00,Wunderground v.1.15,2013-08-26 18:30:00,
2013-08-26 13:35:00,90.6,73.8,29.99,SSW,209,2.0,5.0,58,0.00,,,0.00,Wunderground v.1.15,2013-08-26 18:35:00,
2013-08-26 13:40:00,91.1,74.3,29.98,West,275,2.0,2.0,58,0.00,,,0.00,Wunderground v.1.15,2013-08-26 18:40:00,
2013-08-26 13:45:00,91.0,73.7,29.98,West,260,3.0,3.0,57,0.00,,,0.00,Wunderground v.1.15,2013-08-26 18:45:00,
2013-08-26 13:50:00,91.0,73.7,29.98,SW,232,3.0,3.0,57,0.00,,,0.00,Wunderground v.1.15,2013-08-26 18:50:00,
2013-08-26 13:55:00,91.2,73.3,29.98,South,184,2.0,4.0,56,0.00,,,0.00,Wunderground v.1.15,2013-08-26 18:55:00,
2013-08-26 14:00:00,91.4,73.5,29.98,SW,221,2.0,4.0,56,0.00,,,0.00,Wunderground v.1.15,2013-08-26 19:00:00,
2013-08-26 14:09:00,91.8,72.8,29.97,SSW,202,3.0,3.0,54,0.00,,,0.00,Wunderground v.1.15,2013-08-26 19:09:00,
2013-08-26 14:14:00,92.0,73.5,29.97,SW,234,3.0,3.0,55,0.00,,,0.00,Wunderground v.1.15,2013-08-26 19:14:00,
2013-08-26 14:19:00,92.2,73.7,29.97,South,169,2.0,10.0,55,0.00,,,0.00,Wunderground v.1.15,2013-08-26 19:19:00,
2013-08-26 14:25:00,92.0,73.0,29.97,SW,217,4.0,10.0,54,0.00,,,0.00,Wunderground v.1.15,2013-08-26 19:25:00,
2013-08-26 14:30:00,92.3,74.3,29.96,SSW,206,4.0,4.0,56,0.00,,,0.00,Wunderground v.1.15,2013-08-26 19:30:00,
2013-08-26 14:35:00,92.4,72.8,29.96,SSW,205,2.0,4.0,53,0.00,,,0.00,Wunderground v.1.15,2013-08-26 19:35:00,
2013-08-26 14:40:00,92.5,73.4,29.96,SSW,207,2.0,2.0,54,0.00,,,0.00,Wunderground v.1.15,2013-08-26 19:40:00,
2013-08-26 14:45:00,92.3,72.7,29.96,SSW,211,2.0,2.0,53,0.00,,,0.00,Wunderground v.1.15,2013-08-26 19:45:00,
2013-08-26 14:50:00,92.6,73.0,29.96,SSW,195,2.0,2.0,53,0.00,,,0.00,Wunderground v.1.15,2013-08-26 19:50:00,
2013-08-26 15:00:00,93.5,72.7,29.95,SW,235,1.0,2.0,51,0.00,,,0.00,Wunderground v.1.15,2013-08-26 20:00:00,
2013-08-26 15:05:00,93.8,74.1,29.95,SW,223,1.0,2.0,53,0.00,,,0.00,Wunderground v.1.15,2013-08-26 20:05:00,
2013-08-26 15:14:00,93.6,72.7,29.95,South,178,2.0,13.0,51,0.00,,,0.00,Wunderground v.1.15,2013-08-26 20:14:00,
2013-08-26 15:19:00,93.1,72.9,29.95,SSW,211,3.0,8.0,52,0.00,,,0.00,Wunderground v.1.15,2013-08-26 20:19:00,
2013-08-26 15:25:00,93.2,72.4,29.95,SW,214,4.0,8.0,51,0.00,,,0.00,Wunderground v.1.15,2013-08-26 20:25:00,
2013-08-26 15:30:00,93.4,73.1,29.94,SW,222,3.0,3.0,52,0.00,,,0.00,Wunderground v.1.15,2013-08-26 20:30:00,
2013-08-26 15:35:00,93.5,72.7,29.94,WSW,241,2.0,3.0,51,0.00,,,0.00,Wunderground v.1.15,2013-08-26 20:35:00,
2013-08-26 15:40:00,93.8,72.9,29.94,South,185,2.0,6.0,51,0.00,,,0.00,Wunderground v.1.15,2013-08-26 20:40:00,
2013-08-26 15:45:00,94.1,72.6,29.94,SSW,210,2.0,6.0,50,0.00,,,0.00,Wunderground v.1.15,2013-08-26 20:45:00,
2013-08-26 15:54:00,93.8,72.3,29.94,SSE,148,2.0,3.0,50,0.00,,,0.00,Wunderground v.1.15,2013-08-26 20:54:00,
2013-08-26 15:59:00,93.8,72.3,29.94,SSW,210,2.0,2.0,50,0.00,,,0.00,Wunderground v.1.15,2013-08-26 20:59:00,
2013-08-26 16:05:00,93.3,72.5,29.94,SW,215,2.0,2.0,51,0.00,,,0.00,Wunderground v.1.15,2013-08-26 21:05:00,
2013-08-26 16:10:00,93.1,72.3,29.94,South,187,2.0,3.0,51,0.00,,,0.00,Wunderground v.1.15,2013-08-26 21:10:00,
2013-08-26 16:15:00,93.6,71.6,29.94,SW,227,2.0,7.0,49,0.00,,,0.00,Wunderground v.1.15,2013-08-26 21:15:00,
2013-08-26 16:20:00,93.8,72.9,29.94,South,170,3.0,3.0,51,0.00,,,0.00,Wunderground v.1.15,2013-08-26 21:20:00,
2013-08-26 16:25:00,94.0,73.1,29.93,SSE,153,2.0,3.0,51,0.00,,,0.00,Wunderground v.1.15,2013-08-26 21:25:00,
2013-08-26 16:30:00,94.1,72.6,29.93,West,259,1.0,1.0,50,0.00,,,0.00,Wunderground v.1.15,2013-08-26 21:30:00,
2013-08-26 16:35:00,94.2,72.1,29.93,SSW,197,2.0,2.0,49,0.00,,,0.00,Wunderground v.1.15,2013-08-26 21:35:00,
2013-08-26 16:44:00,94.2,72.7,29.93,SSW,192,2.0,6.0,50,0.00,,,0.00,Wunderground v.1.15,2013-08-26 21:44:00,
2013-08-26 16:50:00,94.4,72.3,29.93,SSW,209,1.0,1.0,49,0.00,,,0.00,Wunderground v.1.15,2013-08-26 21:50:00,
2013-08-26 16:55:00,94.2,72.1,29.93,SSW,210,2.0,2.0,49,0.00,,,0.00,Wunderground v.1.15,2013-08-26 21:55:00,
2013-08-26 17:00:00,94.0,72.5,29.93,SSW,200,2.0,2.0,50,0.00,,,0.00,Wunderground v.1.15,2013-08-26 22:00:00,
2013-08-26 17:05:00,93.9,71.8,29.93,SSW,213,2.0,4.0,49,0.00,,,0.00,Wunderground v.1.15,2013-08-26 22:05:00,
2013-08-26 17:10:00,93.9,71.8,29.93,West,273,2.0,4.0,49,0.00,,,0.00,Wunderground v.1.15,2013-08-26 22:10:00,
2013-08-26 17:15:00,93.7,72.3,29.93,SW,222,2.0,4.0,50,0.00,,,0.00,Wunderground v.1.15,2013-08-26 22:15:00,
2013-08-26 17:24:00,93.7,72.3,29.93,SSW,210,2.0,3.0,50,0.00,,,0.00,Wunderground v.1.15,2013-08-26 22:24:00,
2013-08-26 17:29:00,93.7,71.7,29.93,South,180,1.0,1.0,49,0.00,,,0.00,Wunderground v.1.15,2013-08-26 22:29:00,
2013-08-26 17:34:00,93.8,71.7,29.92,SSW,196,2.0,2.0,49,0.00,,,0.00,Wunderground v.1.15,2013-08-26 22:34:00,
2013-08-26 17:39:00,93.6,72.2,29.92,SW,218,2.0,2.0,50,0.00,,,0.00,Wunderground v.1.15,2013-08-26 22:39:00,
2013-08-26 17:45:00,93.6,71.6,29.92,SW,217,2.0,4.0,49,0.00,,,0.00,Wunderground v.1.15,2013-08-26 22:45:00,
2013-08-26 17:50:00,93.4,72.0,29.92,SSW,195,2.0,2.0,50,0.00,,,0.00,Wunderground v.1.15,2013-08-26 22:50:00,
2013-08-26 17:55:00,93.2,71.8,29.92,SSW,200,2.0,7.0,50,0.00,,,0.00,Wunderground v.1.15,2013-08-26 22:55:00,
2013-08-26 18:00:00,93.0,71.6,29.92,SW,215,3.0,3.0,50,0.00,,,0.00,Wunderground v.1.15,2013-08-26 23:00:00,
2013-08-26 18:05:00,92.9,71.5,29.91,SSW,197,2.0,3.0,50,0.00,,,0.00,Wunderground v.1.15,2013-08-26 23:05:00,
2013-08-26 18:10:00,93.0,71.6,29.92,SW,217,1.0,2.0,50,0.00,,,0.00,Wunderground v.1.15,2013-08-26 23:10:00,
2013-08-26 18:15:00,92.9,72.1,29.92,SW,218,1.0,2.0,51,0.00,,,0.00,Wunderground v.1.15,2013-08-26 23:15:00,
2013-08-26 18:24:00,93.0,72.2,29.91,SSW,211,0.0,0.0,51,0.00,,,0.00,Wunderground v.1.15,2013-08-26 23:24:00,
2013-08-26 18:29:00,92.5,72.3,29.91,SW,220,0.0,0.0,52,0.00,,,0.00,Wunderground v.1.15,2013-08-26 23:29:00,
2013-08-26 18:39:00,91.7,72.7,29.91,SSW,194,0.0,0.0,54,0.00,,,0.00,Wunderground v.1.15,2013-08-26 23:39:00,
2013-08-26 18:44:00,91.4,73.0,29.91,SSW,206,0.0,0.0,55,0.00,,,0.00,Wunderground v.1.15,2013-08-26 23:44:00,
2013-08-26 18:50:00,91.1,73.2,29.91,SSW,194,0.0,0.0,56,0.00,,,0.00,Wunderground v.1.15,2013-08-26 23:50:00,
2013-08-26 18:55:00,90.7,72.8,29.91,South,183,0.0,0.0,56,0.00,,,0.00,Wunderground v.1.15,2013-08-26 23:55:00,
2013-08-26 19:00:00,90.4,73.1,29.91,SSW,199,0.0,3.0,57,0.00,,,0.00,Wunderground v.1.15,2013-08-27 00:00:00,
2013-08-26 19:05:00,90.1,72.8,29.91,South,182,0.0,3.0,57,0.00,,,0.00,Wunderground v.1.15,2013-08-27 00:05:00,
2013-08-26 19:10:00,89.9,73.1,29.90,SSW,202,1.0,1.0,58,0.00,,,0.00,Wunderground v.1.15,2013-08-27 00:10:00,
2013-08-26 19:19:00,89.3,73.1,29.90,South,191,0.0,0.0,59,0.00,,,0.00,Wunderground v.1.15,2013-08-27 00:19:00,
2013-08-26 19:24:00,89.0,72.8,29.90,South,188,0.0,0.0,59,0.00,,,0.00,Wunderground v.1.15,2013-08-27 00:24:00,
2013-08-26 19:29:00,88.7,72.5,29.90,South,182,0.0,0.0,59,0.00,,,0.00,Wunderground v.1.15,2013-08-27 00:29:00,
2013-08-26 19:35:00,88.4,72.7,29.90,South,189,0.0,0.0,60,0.00,,,0.00,Wunderground v.1.15,2013-08-27 00:35:00,
2013-08-26 19:40:00,88.1,72.5,29.90,South,188,0.0,0.0,60,0.00,,,0.00,Wunderground v.1.15,2013-08-27 00:40:00,
2013-08-26 19:50:00,87.5,72.4,29.90,SSW,194,0.0,0.0,61,0.00,,,0.00,Wunderground v.1.15,2013-08-27 00:50:00,
2013-08-26 19:55:00,87.3,72.7,29.90,SSW,192,0.0,0.0,62,0.00,,,0.00,Wunderground v.1.15,2013-08-27 00:55:00,
2013-08-26 20:00:00,87.0,72.4,29.89,SSW,200,0.0,0.0,62,0.00,,,0.00,Wunderground v.1.15,2013-08-27 01:00:00,
2013-08-26 20:05:00,86.7,72.1,29.89,SSW,198,0.0,0.0,62,0.00,,,0.00,Wunderground v.1.15,2013-08-27 01:05:00,
2013-08-26 20:10:00,86.6,72.5,29.89,SSW,196,0.0,0.0,63,0.00,,,0.00,Wunderground v.1.15,2013-08-27 01:10:00,
2013-08-26 20:15:00,86.2,72.1,29.89,SSW,204,0.0,0.0,63,0.00,,,0.00,Wunderground v.1.15,2013-08-27 01:15:00,
2013-08-26 20:20:00,86.0,71.9,29.89,SSW,201,0.0,0.0,63,0.00,,,0.00,Wunderground v.1.15,2013-08-27 01:20:00,
2013-08-26 20:29:00,85.5,71.9,29.89,SSW,202,0.0,0.0,64,0.00,,,0.00,Wunderground v.1.15,2013-08-27 01:29:00,
2013-08-26 20:34:00,85.2,71.6,29.89,SSW,198,0.0,0.0,64,0.00,,,0.00,Wunderground v.1.15,2013-08-27 01:34:00,
2013-08-26 20:39:00,84.9,71.4,29.89,SSW,207,0.0,0.0,64,0.00,,,0.00,Wunderground v.1.15,2013-08-27 01:39:00,
2013-08-26 20:45:00,84.7,71.6,29.89,SSW,202,0.0,0.0,65,0.00,,,0.00,Wunderground v.1.15,2013-08-27 01:45:00,
2013-08-26 20:50:00,84.5,71.4,29.89,SSW,205,0.0,0.0,65,0.00,,,0.00,Wunderground v.1.15,2013-08-27 01:50:00,
2013-08-26 21:00:00,84.0,71.4,29.89,South,188,0.0,0.0,66,0.00,,,0.00,Wunderground v.1.15,2013-08-27 02:00:00,
2013-08-26 21:05:00,83.7,71.1,29.89,SSW,197,0.0,0.0,66,0.00,,,0.00,Wunderground v.1.15,2013-08-27 02:05:00,
2013-08-26 21:10:00,83.4,71.3,29.89,SSW,203,0.0,0.0,67,0.00,,,0.00,Wunderground v.1.15,2013-08-27 02:10:00,
2013-08-26 21:19:00,82.8,71.2,29.89,SSW,202,0.0,0.0,68,0.00,,,0.00,Wunderground v.1.15,2013-08-27 02:19:00,
2013-08-26 21:24:00,82.5,70.9,29.89,SSW,194,0.0,0.0,68,0.00,,,0.00,Wunderground v.1.15,2013-08-27 02:24:00,
2013-08-26 21:30:00,82.3,70.7,29.89,SSW,209,0.0,0.0,68,0.00,,,0.00,Wunderground v.1.15,2013-08-27 02:30:00,
2013-08-26 21:35:00,82.2,70.6,29.89,SW,231,0.0,0.0,68,0.00,,,0.00,Wunderground v.1.15,2013-08-27 02:35:00,
2013-08-26 21:40:00,82.0,70.4,29.89,SSW,196,0.0,0.0,68,0.00,,,0.00,Wunderground v.1.15,2013-08-27 02:40:00,
2013-08-26 21:45:00,81.8,70.2,29.90,WSW,237,0.0,2.0,68,0.00,,,0.00,Wunderground v.1.15,2013-08-27 02:45:00,
2013-08-26 21:50:00,81.6,70.0,29.90,WSW,238,0.0,0.0,68,0.00,,,0.00,Wunderground v.1.15,2013-08-27 02:50:00,
2013-08-26 21:55:00,81.4,69.8,29.90,SSW,194,0.0,0.0,68,0.00,,,0.00,Wunderground v.1.15,2013-08-27 02:55:00,
2013-08-26 22:04:00,81.1,69.5,29.90,South,184,0.0,0.0,68,0.00,,,0.00,Wunderground v.1.15,2013-08-27 03:04:00,
2013-08-26 22:09:00,81.0,69.4,29.90,SSW,209,0.0,0.0,68,0.00,,,0.00,Wunderground v.1.15,2013-08-27 03:09:00,
2013-08-26 22:14:00,80.9,69.3,29.90,SSW,205,0.0,0.0,68,0.00,,,0.00,Wunderground v.1.15,2013-08-27 03:14:00,
2013-08-26 22:19:00,80.9,69.3,29.90,SW,234,0.0,0.0,68,0.00,,,0.00,Wunderground v.1.15,2013-08-27 03:19:00,
2013-08-26 22:25:00,80.7,69.2,29.90,SSW,198,0.0,0.0,68,0.00,,,0.00,Wunderground v.1.15,2013-08-27 03:25:00,
2013-08-26 22:30:00,80.5,69.0,29.90,South,186,0.0,0.0,68,0.00,,,0.00,Wunderground v.1.15,2013-08-27 03:30:00,
2013-08-26 22:35:00,80.4,68.9,29.91,SSW,192,0.0,0.0,68,0.00,,,0.00,Wunderground v.1.15,2013-08-27 03:35:00,
2013-08-26 22:40:00,80.2,68.7,29.91,SSW,192,0.0,0.0,68,0.00,,,0.00,Wunderground v.1.15,2013-08-27 03:40:00,
2013-08-26 22:45:00,80.0,68.9,29.91,SSW,192,0.0,0.0,69,0.00,,,0.00,Wunderground v.1.15,2013-08-27 03:45:00,
2013-08-26 22:50:00,79.8,68.7,29.91,SSW,192,0.0,0.0,69,0.00,,,0.00,Wunderground v.1.15,2013-08-27 03:50:00,
2013-08-26 22:59:00,79.6,68.5,29.91,SSW,192,0.0,0.0,69,0.00,,,0.00,Wunderground v.1.15,2013-08-27 03:59:00,
2013-08-26 23:04:00,79.5,68.4,29.90,SSW,192,0.0,0.0,69,0.00,,,0.00,Wunderground v.1.15,2013-08-27 04:04:00,
2013-08-26 23:09:00,79.4,68.3,29.91,SSW,192,0.0,0.0,69,0.00,,,0.00,Wunderground v.1.15,2013-08-27 04:09:00,
2013-08-26 23:15:00,79.3,68.2,29.91,SSW,192,0.0,0.0,69,0.00,,,0.00,Wunderground v.1.15,2013-08-27 04:15:00,
2013-08-26 23:19:00,79.2,68.6,29.91,SSW,192,0.0,0.0,70,0.00,,,0.00,Wunderground v.1.15,2013-08-27 04:19:00,
2013-08-26 23:25:00,79.1,68.5,29.90,SSW,192,0.0,0.0,70,0.00,,,0.00,Wunderground v.1.15,2013-08-27 04:25:00,
2013-08-26 23:30:00,79.0,68.4,29.91,South,178,0.0,0.0,70,0.00,,,0.00,Wunderground v.1.15,2013-08-27 04:30:00,
2013-08-26 23:35:00,78.9,68.3,29.90,South,180,0.0,0.0,70,0.00,,,0.00,Wunderground v.1.15,2013-08-27 04:35:00,
2013-08-26 23:40:00,78.8,68.6,29.91,SW,214,0.0,0.0,71,0.00,,,0.00,Wunderground v.1.15,2013-08-27 04:40:00,
2013-08-26 23:45:00,78.9,68.3,29.91,SSW,213,0.0,0.0,70,0.00,,,0.00,Wunderground v.1.15,2013-08-27 04:45:00,
2013-08-26 23:50:00,78.9,68.7,29.91,South,187,0.0,0.0,71,0.00,,,0.00,Wunderground v.1.15,2013-08-27 04:50:00,
2013-08-26 23:59:00,78.6,68.4,29.91,South,180,0.0,0.0,71,0.00,,,0.00,Wunderground v.1.15,2013-08-27 04:59:00,